Location: Poigny-la-Forêt
(48.6876°N, 1.7701°E)
Time: 23:25:19
(UTC+02:00)

ISS - Pass Details

Date: 26 May 2019
Orbit: 408 x 418 km, 51.6° (Epoch: 18 June)

Event Time Altitude Azimuth Distance (km) Brightness Sun altitude
Rises 22:31:16 0° 276° (W) 2,351 1.0 -7.3°
Reaches altitude 10° 22:33:24 10° 282° (WNW) 1,491 0.0 -7.5°
Maximum altitude 22:36:40 48° 358° (N) 551 -2.8 -7.9°
Drops below altitude 10° 22:39:57 10° 75° (ENE) 1,498 -1.2 -8.3°
Sets 22:42:06 0° 81° (E) 2,364 -0.3 -8.5°
